[[{"header":{"parameterUnit":"m.s-1","parameterCategory":1,"la1":30.2991,"la2":30.254,"lo1":-89.0895,"lo2":-89.0444,"dy":0.0017,"dx":0.0017,"nx":28,"ny":28,"refTime":"2025-12-20T03:00:00:Z","depth":0,"parameterNumber":2,"parameterNumberName":"U-component_of_WINDS"},"data":[0,0,0,0,0,0,0,0,0,0,0,0,0,0,0,0,0,0,0,0,0,0,0,0,0,0,0,0,0,0,0,0,0,0,0,0,0,0,0,0,0,0,0,0,0,0,0,0,0,0,0,0,0,0,0,0,0,0,-0.7232,-0.7232,0,-0.7203,-0.7203,-0.7203,-0.7168,-0.7167,-0.7166,-0.7166,-0.7138,-0.7138,-0.7138,0,0,0,0,0,0,0,0,0,0,0,0,0,-0.7259,-0.7259,-0.7232,-0.7232,-0.7232,-0.7204,-0.7203,-0.7203,-0.7168,-0.7167,-0.7166,-0.7166,-0.7138,-0.7138,-0.7138,0,0,0,0,0,0,0,0,0,0,0,0,0,-0.7241,-0.7259,-0.7232,-0.7211,-0.7208,-0.7204,-0.7203,-0.7203,-0.7168,-0.7167,-0.7166,-0.7165,-0.7138,-0.7138,-0.7138,-0.7153,0,0,-0.7137,-0.7137,0,0,0,0,0,0,0,0,-0.7242,-0.724,-0.7214,-0.7212,-0.721,-0.7188,-0.7202,-0.7186,-0.7168,-0.7183,-0.7166,-0.7165,-0.7156,-0.7154,-0.715,-0.7151,-0.715,-0.7137,-0.7136,-0.7136,-0.7136,0,0,0,0,0,0,0,-0.7243,-0.7241,-0.7221,-0.7214,-0.7211,-0.7203,-0.7199,-0.7199,-0.7175,-0.7182,-0.7179,-0.7176,-0.7154,-0.7151,-0.7149,-0.715,-0.7137,-0.7136,-0.7136,-0.7136,-0.7162,-0.7163,0,0,0,0,0,0,-0.7247,-0.7242,-0.7222,-0.722,-0.7224,-0.7203,-0.7199,-0.7196,-0.7174,-0.717,-0.7177,-0.7175,-0.7152,-0.715,-0.7148,-0.7165,-0.7136,-0.7136,-0.7136,-0.7161,-0.7162,-0.7163,0,0,0,0,0,0,-0.7248,-0.7246,-0.7223,-0.723,-0.7227,-0.7204,-0.72,-0.7196,-0.7192,-0.7171,-0.7166,-0.7178,-0.7151,-0.7149,-0.7152,-0.7163,-0.7136,-0.7136,-0.716,-0.7161,-0.7163,-0.7198,0,0,0,0,0,0,-0.7249,-0.7246,-0.7251,-0.7231,-0.7227,-0.7227,-0.7201,-0.7196,-0.7192,-0.7188,-0.717,-0.7167,-0.715,-0.7152,-0.7151,-0.7162,-0.7135,-0.7159,-0.7161,-0.7162,-0.7195,-0.72,-0.7204,0,0,0,0,0,-0.725,-0.7262,-0.7252,-0.7249,-0.7232,-0.7227,-0.7225,-0.7205,-0.7193,-0.7198,-0.7184,-0.7167,-0.7162,-0.7153,-0.7152,-0.7163,-0.7158,-0.716,-0.7162,-0.7193,-0.7199,-0.7204,0,0,0,0,0,0,-0.7286,-0.7259,-0.7247,-0.7253,-0.7243,-0.7221,-0.7227,-0.7212,-0.7205,-0.7202,-0.7179,-0.7175,-0.7181,-0.7172,-0.7162,-0.7176,-0.7158,-0.716,-0.7182,-0.7187,-0.7191,-0.7194,-0.7135,0,0,0,0,0,-0.7294,-0.7292,-0.7269,-0.7277,-0.7272,-0.7251,-0.7248,-0.7233,-0.7222,-0.7217,-0.7204,-0.7194,-0.719,-0.7188,-0.7183,-0.7194,-0.719,-0.7201,-0.7205,-0.7208,-0.7211,-0.7216,-0.7221,-0.717,-0.717,-0.717,0,0,-0.7312,-0.7297,-0.7297,-0.7283,-0.7273,-0.7272,-0.7247,-0.7247,-0.7246,-0.7217,-0.7219,-0.7209,-0.7197,-0.7204,-0.7206,-0.7196,-0.7224,-0.7211,-0.7214,-0.7214,-0.7219,-0.7224,-0.7228,-0.7171,-0.7171,-0.7171,0,0,-0.7343,-0.7332,-0.7337,-0.7327,-0.7313,-0.7298,-0.73,-0.7281,-0.7273,-0.7274,-0.7253,-0.7252,-0.7246,-0.7238,-0.7233,-0.7262,-0.7246,-0.7261,-0.7283,-0.7289,-0.7293,-0.7297,-0.7308,-0.7312,-0.7263,-0.7263,-0.7263,0,-0.7367,-0.7364,-0.7342,-0.7343,-0.7338,-0.7311,-0.7317,-0.7309,-0.7294,-0.7291,-0.728,-0.7272,-0.7262,-0.7267,-0.7274,-0.7271,-0.7272,-0.7263,-0.7294,-0.7297,-0.73,-0.7311,-0.7315,-0.7265,-0.7264,-0.7264,-0.7264,0,-0.7394,-0.7392,-0.7398,-0.7384,-0.7379,-0.7383,-0.7362,-0.736,-0.7346,-0.7334,-0.7336,-0.7322,-0.7315,-0.7315,-0.7301,-0.7318,-0.7313,-0.7298,-0.7279,-0.7308,-0.7317,-0.732,-0.7267,-0.7267,-0.7266,-0.7266,0,0,-0.7448,-0.7421,-0.7424,-0.7417,-0.7399,-0.7397,-0.7399,-0.7391,-0.7391,-0.7381,-0.7383,-0.7379,-0.7365,-0.736,-0.7345,-0.735,-0.7375,-0.7335,-0.7335,-0.7344,-0.7393,-0.7405,-0.741,-0.7364,-0.7365,-0.7365,-0.7395,0,-0.7477,-0.7479,-0.7459,-0.7466,-0.7465,-0.744,-0.7442,-0.7432,-0.742,-0.7417,-0.7404,-0.7402,-0.7384,-0.738,-0.7384,-0.7371,-0.7385,-0.7369,-0.7367,-0.7367,-0.7371,-0.7414,-0.7426,-0.7455,-0.7398,-0.7399,-0.7399,0,-0.7511,-0.7502,-0.751,-0.7491,-0.749,-0.7492,-0.7483,-0.7481,-0.7469,-0.746,-0.7454,-0.7437,-0.7439,-0.7421,-0.7424,-0.7413,-0.7411,-0.7405,-0.7406,-0.7405,-0.7385,-0.7416,-0.7463,-0.7468,-0.7404,-0.7404,-0.7404,0,-0.755,-0.7541,-0.7544,-0.7539,-0.7517,-0.752,-0.7511,-0.7498,-0.7494,-0.7487,-0.7485,-0.7478,-0.7474,-0.747,-0.7452,-0.744,-0.7457,-0.7437,-0.7451,-0.7451,-0.7456,-0.7456,-0.7504,-0.7454,-0.7454,-0.7454,-0.7454,0,-0.7584,-0.759,-0.7561,-0.7563,-0.7569,-0.7547,-0.7553,-0.7542,-0.7531,-0.7531,-0.7509,-0.751,-0.7486,-0.7485,-0.7471,-0.7476,-0.7474,-0.7468,-0.7464,-0.747,-0.7471,-0.7469,-0.7467,-0.7455,-0.7455,-0.7454,-0.7454,0,-0.763,-0.761,-0.7612,-0.7592,-0.7586,-0.7592,-0.7575,-0.7576,-0.7563,-0.7563,-0.7562,-0.7542,-0.7539,-0.752,-0.7513,-0.7504,-0.7514,-0.7506,-0.7518,-0.7516,-0.7531,-0.753,-0.758,-0.7586,-0.7531,-0.7532,-0.7532,0,-0.7653,-0.7657,-0.7637,-0.7635,-0.7627,-0.7624,-0.762,-0.7598,-0.7595,-0.7582,-0.7586,-0.7581,-0.7576,-0.7572,-0.7557,-0.7552,-0.7544,-0.7562,-0.7543,-0.7549,-0.7545,-0.7546,-0.7546,-0.7566,-0.7567,-0.7568,-0.7568,0,-0.7698,-0.7688,-0.7683,-0.7675,-0.767,-0.7663,-0.7654,-0.7654,-0.763,-0.7628,-0.7624,-0.7621,-0.7613,-0.7609,-0.7601,-0.7593,-0.7577,-0.7574,-0.7577,-0.7583,-0.759,-0.7588,-0.753,-0.7573,-0.7573,-0.7572,-0.7572,-0.7572,-0.7734,-0.7736,-0.7722,-0.7717,-0.7708,-0.77,-0.7701,-0.7687,-0.7683,-0.7675,-0.7663,-0.7661,-0.7649,-0.7637,-0.763,-0.7629,-0.762,-0.7624,-0.7625,-0.7627,-0.763,-0.759,-0.7627,-0.7627,-0.7627,-0.7627,-0.7627,0,-0.7778,-0.7767,-0.7763,-0.7751,-0.7747,-0.7731,-0.7721,-0.772,-0.7718,-0.7708,-0.7703,-0.77,-0.7695,-0.768,-0.7674,-0.7676,-0.7669,-0.7676,-0.7676,-0.7674,-0.7638,-0.7637,-0.7682,-0.7682,-0.7682,-0.7682,-0.7682,-0.7682,-0.78,-0.7803,-0.7792,-0.7791,-0.778,-0.7778,-0.7773,-0.7766,-0.7758,-0.7755,-0.7751,-0.774,-0.7728,-0.7722,-0.7718,-0.7713,-0.7713,-0.7722,-0.7715,-0.7682,-0.7677,-0.7672,-0.767,-0.7722,-0.7722,-0.7752,-0.7752,-0.7752]},{"header":{"parameterUnit":"m.s-1","parameterCategory":1,"la1":30.2991,"la2":30.254,"lo1":-89.0895,"lo2":-89.0444,"dy":0.0017,"dx":0.0017,"nx":28,"ny":28,"refTime":"2025-12-20T03:00:00:Z","depth":0,"parameterNumber":3,"parameterNumberName":"V-component_of_WINDS"},"data":[0,0,0,0,0,0,0,0,0,0,0,0,0,0,0,0,0,0,0,0,0,0,0,0,0,0,0,0,0,0,0,0,0,0,0,0,0,0,0,0,0,0,0,0,0,0,0,0,0,0,0,0,0,0,0,0,0,0,0.6041,0.6042,0,0.6093,0.6094,0.6094,0.6146,0.6147,0.6147,0.6148,0.6199,0.62,0.6201,0,0,0,0,0,0,0,0,0,0,0,0,0,0.5986,0.5987,0.6041,0.6042,0.6043,0.6093,0.6094,0.6094,0.6146,0.6147,0.6147,0.6148,0.6199,0.62,0.6201,0,0,0,0,0,0,0,0,0,0,0,0,0,0.6021,0.5987,0.6041,0.6074,0.6078,0.6093,0.6094,0.6094,0.6146,0.6147,0.6148,0.6149,0.6199,0.62,0.6201,0.6187,0,0,0.6204,0.6205,0,0,0,0,0,0,0,0,0.6019,0.6023,0.6069,0.6072,0.6076,0.6114,0.6093,0.6125,0.6145,0.612,0.6148,0.6149,0.617,0.6174,0.6181,0.6189,0.6191,0.6204,0.6205,0.6205,0.6206,0,0,0,0,0,0,0,0.6017,0.6021,0.6062,0.6069,0.6074,0.6086,0.6092,0.6099,0.6138,0.6122,0.6126,0.6131,0.6172,0.618,0.6182,0.6192,0.6204,0.6205,0.6206,0.6206,0.6192,0.6191,0,0,0,0,0,0,0.6009,0.6019,0.606,0.6063,0.605,0.6087,0.6093,0.6101,0.6138,0.6145,0.6131,0.6134,0.6177,0.6181,0.6184,0.6171,0.6205,0.6206,0.6207,0.6193,0.6192,0.6191,0,0,0,0,0,0,0.6008,0.6013,0.6058,0.6042,0.6049,0.6086,0.6094,0.6101,0.6109,0.6145,0.6152,0.6131,0.6178,0.6183,0.6186,0.6174,0.6207,0.6208,0.6194,0.6193,0.6191,0.6144,0,0,0,0,0,0,0.6006,0.6012,0.6007,0.6042,0.605,0.6059,0.6094,0.6102,0.6111,0.6115,0.6147,0.6154,0.6179,0.6184,0.6187,0.6176,0.6209,0.6196,0.6194,0.6192,0.6147,0.6141,0.6136,0,0,0,0,0,0.6004,0.5991,0.6007,0.6011,0.6044,0.6058,0.6063,0.6093,0.611,0.6105,0.6128,0.6153,0.6174,0.6184,0.6188,0.6177,0.6197,0.6194,0.6192,0.6149,0.6142,0.6136,0,0,0,0,0,0,0.5954,0.5996,0.6014,0.6012,0.6031,0.6067,0.6062,0.6084,0.6099,0.6103,0.6139,0.6146,0.6145,0.6161,0.6171,0.6165,0.6189,0.6187,0.6155,0.6149,0.6144,0.614,0.621,0,0,0,0,0,0.5942,0.595,0.5987,0.5982,0.599,0.6024,0.6031,0.6053,0.6075,0.6083,0.6106,0.6125,0.6137,0.6143,0.6156,0.6149,0.6157,0.6143,0.6138,0.6133,0.6132,0.613,0.6125,0.6183,0.6183,0.6183,0,0,0.5919,0.5943,0.5946,0.5972,0.599,0.5997,0.6031,0.6037,0.6043,0.6084,0.6089,0.6106,0.613,0.6128,0.6129,0.6142,0.6117,0.613,0.6126,0.6128,0.6127,0.6122,0.6117,0.6182,0.6182,0.6182,0,0,0.5881,0.5899,0.5898,0.5914,0.5941,0.5963,0.5963,0.5995,0.6009,0.6014,0.6045,0.6052,0.6071,0.6087,0.6098,0.6065,0.6088,0.6068,0.604,0.6038,0.6034,0.603,0.6019,0.6015,0.6066,0.6066,0.6066,0,0.5848,0.5861,0.5894,0.5898,0.5909,0.5947,0.5945,0.596,0.5988,0.5995,0.6008,0.6033,0.6052,0.6055,0.6047,0.6054,0.6055,0.6065,0.6032,0.6028,0.6025,0.6016,0.6011,0.6063,0.6064,0.6064,0.6064,0,0.5821,0.5829,0.5824,0.5852,0.5862,0.5863,0.5896,0.5902,0.5922,0.5944,0.5949,0.5972,0.5991,0.5993,0.6013,0.5999,0.6006,0.6025,0.605,0.6017,0.6008,0.6005,0.606,0.6061,0.6061,0.6062,0,0,0.5753,0.5798,0.5796,0.581,0.5841,0.5848,0.5851,0.5869,0.5874,0.5892,0.5896,0.5911,0.5929,0.5941,0.5963,0.5961,0.5935,0.5981,0.5982,0.5972,0.5922,0.5909,0.5904,0.595,0.5949,0.5949,0.5921,0,0.5721,0.573,0.5759,0.5759,0.5767,0.5802,0.5805,0.5824,0.5844,0.5854,0.5875,0.5886,0.5908,0.5916,0.5915,0.5938,0.5926,0.594,0.5954,0.5954,0.5949,0.5899,0.5885,0.5857,0.5917,0.5917,0.5916,0,0.5685,0.5702,0.5703,0.5734,0.5739,0.5741,0.576,0.5769,0.5792,0.5806,0.5819,0.5844,0.5849,0.5871,0.5878,0.5888,0.5895,0.5907,0.5907,0.591,0.5934,0.5903,0.5849,0.5845,0.5911,0.5912,0.5912,0,0.5638,0.566,0.5664,0.5673,0.571,0.5711,0.5726,0.575,0.5759,0.5776,0.5782,0.5798,0.5808,0.582,0.5848,0.5861,0.5853,0.5877,0.5865,0.5865,0.5863,0.5863,0.5811,0.5865,0.5865,0.5865,0.5865,0,0.56,0.5599,0.5643,0.5645,0.5645,0.5678,0.5678,0.5696,0.5717,0.5723,0.5754,0.5759,0.5796,0.5805,0.5827,0.583,0.5834,0.5846,0.5852,0.5844,0.5843,0.585,0.5853,0.5864,0.5865,0.5865,0.5865,0,0.5547,0.5576,0.5583,0.5617,0.5626,0.5624,0.5654,0.5657,0.5678,0.5686,0.5689,0.5723,0.5735,0.5764,0.5784,0.5799,0.5798,0.5808,0.579,0.5794,0.5782,0.5783,0.5734,0.5729,0.5785,0.5784,0.5784,0,0.5522,0.5523,0.5557,0.5564,0.5578,0.5588,0.5598,0.563,0.5639,0.5665,0.5665,0.568,0.5694,0.5713,0.5739,0.5754,0.5766,0.5747,0.5768,0.576,0.5767,0.5767,0.5768,0.5743,0.5742,0.5742,0.5741,0,0.5475,0.5489,0.5502,0.552,0.5531,0.5547,0.5564,0.5568,0.5604,0.5613,0.5626,0.5637,0.5658,0.5673,0.5692,0.5707,0.573,0.5734,0.5733,0.5725,0.5716,0.5722,0.5779,0.5736,0.5736,0.5737,0.5737,0.5737,0.5436,0.5439,0.5463,0.5477,0.5494,0.5509,0.5514,0.5536,0.5548,0.5568,0.5586,0.5598,0.5621,0.5649,0.5663,0.5673,0.5684,0.5682,0.5681,0.568,0.5677,0.5713,0.5676,0.5676,0.5677,0.5677,0.5677,0,0.5392,0.541,0.5422,0.5445,0.5456,0.5476,0.5497,0.5504,0.5515,0.5534,0.5547,0.5563,0.5577,0.5604,0.562,0.5623,0.5634,0.5626,0.5627,0.5631,0.5665,0.5666,0.5617,0.5617,0.5617,0.5617,0.5617,0.5617,0.537,0.5376,0.5393,0.5406,0.5424,0.5436,0.5446,0.5461,0.5476,0.5493,0.5505,0.5522,0.5545,0.5563,0.5577,0.5585,0.559,0.5579,0.559,0.5622,0.5628,0.5633,0.5634,0.558,0.5579,0.5554,0.5554,0.5554]}]]